Location: Newark
(54.0500°N, 12.8333°E)
Time: 00:50:02
(UTC+00:00)

Vanguard 2 - All Passes

Search period start: 27 January 2020 00:00
Search period end: 06 February 2020 00:00
Orbit: 553 x 2938 km, 32.9° (Epoch: 26 January)

Date Brightness Start Highest point End Pass type
(mag) Time Alt. Az. Time Alt. Az. Time Alt. Az.
27 Jan - 08:03:31 10° S 08:08:18 12° SSE 08:12:30 10° SE daylight
27 Jan - 10:08:54 10° SSW 10:16:42 19° S 10:22:38 10° SE daylight
27 Jan - 12:18:55 10° SW 12:24:27 16° SSW 12:28:47 10° SSE daylight
28 Jan - 08:18:14 10° SSW 08:25:45 16° SSE 08:31:55 10° SE daylight
28 Jan - 10:25:44 10° SW 10:34:11 21° S 10:40:27 10° SE daylight
28 Jan - 12:36:38 10° SW 12:41:46 15° SSW 12:45:53 10° SSE daylight
29 Jan - 08:34:02 10° SSW 08:43:12 19° SSE 08:50:25 10° SE daylight
29 Jan - 10:42:50 10° SW 10:51:38 22° S 10:58:04 10° SE daylight
29 Jan - 12:54:43 10° SW 12:59:01 14° SSW 13:02:36 10° S daylight
30 Jan - 06:45:33 10° S 06:51:54 13° SSE 06:57:34 10° SE daylight
30 Jan - 08:50:22 10° SSW 09:00:40 22° S 09:08:31 10° SE daylight
30 Jan - 11:00:10 10° SW 11:09:02 22° SSW 11:15:31 10° SE daylight
30 Jan - 13:13:25 10° SW 13:16:12 12° SSW 13:18:40 10° SSW daylight
31 Jan - 07:00:11 10° S 07:09:16 17° SSE 07:16:57 10° ESE daylight
31 Jan - 09:07:06 10° SW 09:18:08 25° S 09:26:21 10° SE daylight
31 Jan - 11:17:42 10° WSW 11:26:23 21° SSW 11:32:47 10° SSE daylight
01 Feb - 07:15:49 10° SSW 07:26:38 21° SSE 07:35:31 10° ESE daylight
01 Feb - 09:24:06 10° SW 09:35:34 26° S 09:44:01 10° SE daylight
01 Feb - 11:35:26 10° WSW 11:43:40 20° SSW 11:49:50 10° SSE daylight
02 Feb - 05:28:34 10° SSE 05:35:09 13° SE 05:41:15 10° ESE visible
02 Feb - 07:32:03 10° SSW 07:44:02 24° SSE 07:53:39 10° ESE daylight
02 Feb - 09:41:19 10° SW 09:52:59 27° S 10:01:32 10° SE daylight
02 Feb - 11:53:25 10° WSW 12:00:52 18° SSW 12:06:38 10° S daylight
03 Feb - 05:42:49 10° S 05:52:22 17° SSE 06:00:59 10° ESE visible
03 Feb - 07:48:39 10° SW 08:01:27 27° S 08:11:34 10° ESE daylight
03 Feb - 09:58:44 10° WSW 10:10:22 27° SSW 10:18:54 10° SE daylight
03 Feb - 12:11:43 10° WSW 12:17:59 15° SW 12:23:02 10° S daylight
04 Feb - 05:58:13 10° SSW 06:09:37 21° SSE 06:19:42 10° ESE visible
04 Feb - 08:05:32 10° SW 08:18:52 29° S 08:29:17 10° ESE daylight
04 Feb - 10:16:19 10° WSW 10:27:41 26° SSW 10:36:06 10° SSE daylight
04 Feb - 12:30:44 10° WSW 12:35:00 12° SW 12:38:43 10° SSW daylight
05 Feb - 04:13:10 10° SSE 04:18:12 12° SE 04:23:07 10° ESE visible
05 Feb - 06:14:16 10° SSW 06:26:55 25° SSE 06:37:58 10° ESE visible
05 Feb - 08:22:39 10° SW 08:36:17 31° S 08:46:51 10° SE daylight
05 Feb - 10:34:04 10° WSW 10:44:55 24° SSW 10:53:06 10° SSE daylight
